Location: La Tour
(47.0494°N, 0.4030°E)
Time: 16:42:22
(UTC+00:00)

Daily predictions for brighter satellites

Satellite Brightness Start Highest point End
(mag) Time Altitude Azimuth Time Altitude Azimuth Time Altitude Azimuth
USA 281 3.3 18:46:30 10° NNE 18:53:02 64° ESE 18:59:32 10° SSW
Cosmos 2082 4.3 18:54:50 10° SSE 18:59:48 34° ESE 19:04:50 10° NE
Cosmos 1733 Rocket 3.1 18:56:58 10° S 19:01:12 58° E 19:05:28 10° NNE
Landsat 7 4.3 18:57:14 10° SE 19:01:39 42° ENE 19:06:06 10° N
Lacrosse 5 rocket 3.0 18:57:48 10° W 19:01:40 32° NNW 19:05:24 10° NE
Cosmos 1674 Rocket 4.0 18:57:50 10° N 19:01:56 40° ENE 19:06:00 10° SE
USA 215 3.3 18:55:30 10° NE 19:02:04 73° SE 19:08:35 10° SW
Cosmos 2227 Rocket 2.2 18:58:20 10° SSW 19:03:59 83° ESE 19:09:42 10° NNE
CZ-4C R/B 3.2 18:57:31 10° NW 19:04:28 60° NE 19:12:48 10° SE
Cosmos 1726 3.3 19:01:48 10° SSW 19:05:10 45° WNW 19:08:35 10° N
Cosmos 1378 Rocket 3.8 19:02:58 10° N 19:07:17 49° ENE 19:11:35 10° SSE
Cosmos 2219 3.2 19:03:56 10° SSW 19:09:29 69° ESE 19:15:06 10° NNE
Cosmos 1470 3.4 19:07:19 10° SSE 19:10:51 33° E 19:14:23 10° NNE
CZ-4 R/B 1.6 19:11:57 10° S 19:15:49 73° WSW 19:19:47 10° NNW
RESURS DK-1 3.7 19:13:00 10° SSE 19:15:51 19° ESE 19:18:44 10° ENE
Cosmos 2233 Rocket 4.2 19:09:42 10° N 19:15:53 79° W 19:22:06 10° S
Cosmos 1992 Rocket 4.3 19:12:30 10° S 19:17:24 44° ESE 19:22:19 10° NE
Feng Yun 1-1 Rocket 4.3 19:12:13 10° SSE 19:17:51 85° ENE 19:23:40 10° NNW
SJ-6B 2.7 19:15:22 10° SSE 19:19:10 69° ENE 19:22:55 10° N
CSL-04 Rocket 3.9 19:13:57 10° SE 19:19:20 55° ENE 19:24:42 10° N
Meteor 1-24 Rocket 4.2 19:13:50 10° N 19:19:38 46° ENE 19:25:24 10° SE
YAOGAN 1 4.0 19:16:20 10° SSW 19:20:23 40° W 19:24:29 10° NNW
SJ 16-02 2.0 19:16:45 10° N 19:20:51 37° ENE 19:24:28 13° SE
ATLAS 2AS CENTAUR R/B 3.8 19:15:27 10° SSE 19:21:23 25° ESE 19:27:11 10° ENE
ISS -2.8 19:20:33 10° WNW 19:23:44 41° SW 19:26:39 12° SE
SL-16 R/B 2.2 19:18:50 10° NNW 19:24:34 88° ENE 19:30:14 10° SSE
NOSS 2-1 (C) 2.6 19:24:51 10° SSW 19:28:11 65° SE 19:31:16 10° NE
Resurs 1-3 3.6 19:25:56 10° SSE 19:30:16 68° ENE 19:34:37 10° N
USA 186 1.6 19:29:42 10° SSE 19:32:49 86° E 19:36:01 10° NNW
NOSS 2-1 (D) 2.7 19:29:29 10° SSW 19:32:55 74° SE 19:36:06 10° NE
H-2A R/B 4.5 19:33:56 13° E 19:35:21 15° ENE 19:37:48 10° NNE
Cosmos 1486 Rocket 4.1 19:30:49 10° NNW 19:36:06 62° ENE 19:40:45 13° SE
Cosmos 2263 Rocket 2.4 19:31:52 10° S 19:37:07 45° ESE 19:42:24 10° NE
USA 267 3.3 19:31:34 13° SE 19:37:33 88° SW 19:44:08 10° NW
Meteor 1-15 Rocket 4.3 19:32:08 10° S 19:37:56 74° E 19:43:52 10° NNE
Cosmos 1908 Rocket 3.7 19:34:41 10° S 19:39:00 51° E 19:43:18 10° NNE
Cosmos 1758 4.3 19:37:31 18° SE 19:39:29 26° E 19:42:46 10° NNE
Resurs 01 Rocket 2.2 19:36:36 16° SE 19:39:43 39° ENE 19:43:50 10° N
NOSS 3-4 (A) 3.8 19:34:08 10° SW 19:39:43 64° NW 19:45:53 10° NE
NOSS 3-4 (C) 3.8 19:34:15 10° SW 19:39:49 64° NW 19:45:58 10° NE
ATLAS 3B R/B 4.0 19:34:39 10° NW 19:41:21 33° NNE 19:47:05 14° E
GEOS 3 Rocket 3.7 19:43:52 10° NE 19:49:13 58° SE 19:54:31 10° SSW
Meteor 2-15 4.4 19:43:43 10° N 19:49:52 76° E 19:55:57 10° SSE
Cosmos 2034 Rocket 4.2 19:44:08 10° N 19:50:05 48° ENE 19:54:36 17° SE
Cosmos 1703 4.3 19:48:28 10° NNE 19:51:42 25° ENE 19:52:15 24° E
Cosmos 220 Rocket 3.9 19:49:58 10° NNW 19:54:12 87° ENE 19:57:14 19° SSE
Meteor 2-8 Rocket 4.4 19:49:13 10° N 19:55:24 76° E 20:01:34 10° SSE
SL-4 R/B 3.0 19:52:28 10° W 19:57:02 51° N 20:00:42 15° ENE
Cosmos 1300 Rocket 4.4 19:56:52 26° E 19:57:18 27° E 20:00:58 10° NNE
Cosmos 1975 Rocket 3.7 19:53:35 10° N 19:57:45 37° ENE 19:59:17 28° ESE
Okean O Rocket 3.3 19:55:35 10° SSW 19:59:33 33° W 20:03:31 10° NNW
Meteor 2-15 Rocket 4.4 19:54:16 10° N 20:00:25 70° E 20:05:50 13° SSE
IRS-1C Rocket 4.0 19:57:26 14° SSE 20:02:04 80° ENE 20:07:23 10° NNW
Cosmos 2346 Rocket 4.5 19:57:28 10° S 20:03:39 87° W 20:09:56 10° N
Cosmos 1953 4.4 20:07:37 14° NE 20:07:37 14° NE 20:08:35 10° NE
Tsikada Rocket 4.4 20:02:35 20° SE 20:06:17 39° E 20:11:55 10° NNE
Okean-O 2.8 20:03:03 12° S 20:07:10 74° WSW 20:11:37 10° NNW
Landsat 5 3.2 20:07:55 10° NNE 20:11:54 72° ESE 20:16:00 10° S
Ariane Rocket 3.7 20:11:02 30° E 20:12:30 36° ENE 20:17:06 10° N
Cosmos 1782 Rocket 3.5 20:10:30 18° S 20:13:42 62° E 20:18:03 10° NNE
SWAS 4.3 20:11:22 10° NNW 20:15:40 79° ENE 20:17:07 41° SE
Meteor 2-19 Rocket 4.4 20:10:41 10° S 20:16:43 67° E 20:22:46 10° NNE
SPOT 1/Viking Rocket 3.6 20:13:21 15° S 20:17:38 79° WSW 20:22:53 10° NNW
Cosmos 2227 4.3 20:16:00 10° S 20:21:35 54° ESE 20:27:10 10° NE
Iridium 82 4.3 20:20:52 49° S 20:21:43 82° E 20:25:17 10° N
Cosmos 1943 3.1 20:16:51 10° NNW 20:22:30 75° ENE 20:24:57 35° SE
Meteor 2-5 Rocket 4.5 20:18:17 10° NNW 20:24:02 56° W 20:29:48 10° S
Cosmos 1354 Rocket 3.9 20:20:08 10° NNW 20:25:27 78° ENE 20:27:35 37° SSE
NOSS 2-1 (E) 4.5 20:23:33 10° WSW 20:26:30 33° NW 20:29:26 10° NNE
Cosmos 1464 Rocket 4.4 20:22:14 10° NNW 20:28:34 66° W 20:34:51 10° S
Cosmos 1603 3.7 20:23:27 10° NNW 20:29:10 67° ENE 20:31:09 41° SE
BlueWalker 3 3.3 20:28:12 10° W 20:31:51 37° NNW 20:33:43 23° NE
SPOT 5 3.3 20:35:23 42° E 20:35:54 44° ENE 20:40:41 10° N
CARTOSAT-1 3.5 20:39:59 50° S 20:41:04 79° WSW 20:45:23 10° NNW
Geosat 3.9 20:39:58 51° SE 20:41:15 79° ENE 20:46:18 10° NNW
Lacrosse 5 rocket 3.6 20:38:23 10° NW 20:41:29 20° N 20:43:37 14° NE
Cosmos 1025 Rocket 3.2 20:39:01 10° NNW 20:43:18 65° W 20:44:32 43° SSW
MetOp-B 4.0 20:42:51 46° SSE 20:44:29 81° ENE 20:49:53 10° NNW
USA 215 4.0 20:38:38 10° NE 20:44:55 51° NNW 20:51:11 10° W
Cosmos 1908 4.2 20:43:28 16° SW 20:46:14 44° WNW 20:49:51 10° N
Cosmos 1340 Rocket 3.6 20:43:35 10° NNW 20:47:19 46° W 20:48:16 37° SW
Cosmos 1408 4.4 20:46:18 10° N 20:47:36 20° NNE 20:47:36 20° NNE
CZ-4C R/B 3.9 20:46:08 10° NW 20:53:06 44° WSW 20:58:39 20° S
RESURS DK-1 3.3 20:49:28 10° SW 20:53:25 47° WNW 20:57:25 10° NNE
BREEZE-M DEB (TANK) 4.0 20:51:43 10° WNW 20:54:05 28° WSW 20:54:05 28° WSW
Terra 2.5 20:56:29 41° NE 20:56:29 41° NE 21:00:27 10° N
SJ 16-02 3.3 20:55:34 10° NW 20:59:09 25° W 21:01:24 17° SW
Cosmos 1634 Rocket 3.9 21:02:06 10° N 21:08:29 89° E 21:10:04 54° S
H-2A R/B 2.7 21:10:16 73° WNW 21:10:16 73° WNW 21:14:30 10° NNW
ATLAS 2AS CENTAUR R/B 2.9 21:03:58 10° SW 21:11:39 85° NW 21:19:03 10° NE
SME Rocket 4.3 21:11:00 53° ESE 21:11:56 58° ENE 21:17:06 10° N
Timation 2 Rocket 4.1 21:09:11 10° SW 21:15:20 74° WNW 21:21:49 10° NNE
Resurs 01 Rocket 3.7 21:14:07 16° SW 21:16:19 23° W 21:19:52 10° NW
ERS-1 Rocket 2.9 21:19:38 77° NNE 21:19:38 77° NNE 21:24:21 10° NNW
Aureole 1 Rocket 4.3 21:16:11 10° NW 21:18:42 31° WNW 21:18:42 31° WNW
Okean 2 Rocket 4.4 21:22:33 33° NNE 21:22:33 33° NNE 21:25:01 10° NNE
Cosmos 2263 Rocket 3.8 21:16:11 10° WSW 21:21:11 33° NW 21:26:12 10° NNE
Meteor 2-10 Rocket 3.5 21:21:57 73° W 21:22:05 74° WNW 21:27:06 10° N
Cosmos 1844 Rocket 3.4 21:28:04 41° NE 21:28:04 41° NE 21:31:41 10° NNE
Meteor 1-21 Rocket 4.5 21:22:04 10° NNW 21:27:58 68° W 21:28:50 59° SW
Meteor 2-14 Rocket 4.4 21:30:45 69° SSW 21:31:32 84° W 21:37:44 10° N
ATLAS 3B R/B 2.8 21:25:24 10° NW 21:33:04 89° NE 21:34:21 66° SE
SPOT 3 Rocket 3.8 21:33:46 64° W 21:33:46 64° W 21:38:56 10° NNW
SL-4 R/B 3.3 21:32:21 10° WNW 21:35:56 44° NNW 21:35:56 44° NNW
Cosmos 1953 4.1 21:43:03 30° NNW 21:43:03 30° NNW 21:45:32 10° N
ADEOS Rocket 3.3 21:40:45 65° SSW 21:41:49 78° WSW 21:49:15 10° NNW
Cosmos 2142 Rocket 4.4 21:37:46 10° N 21:43:56 80° W 21:44:02 80° WSW
NOSS 2-2 (E) 4.4 21:39:34 10° NW 21:43:34 64° N 21:43:34 64° N
Cosmos 2344 4.1 21:37:53 10° NW 21:46:34 85° NE 21:49:32 55° SE
Ariane Rocket 4.3 21:51:13 32° WSW 21:51:28 33° W 21:56:01 10° NNW
NOSS 3-1 (A) 4.2 21:45:50 10° NW 21:52:56 59° NE 21:54:04 54° ENE
Cosmos 2279 Rocket 4.4 21:58:36 10° NNW 22:04:39 54° W 22:04:49 54° W
Cosmos 1898 Rocket 4.5 22:06:38 10° NNW 22:10:20 46° NNW 22:10:20 46° NNW
Lacrosse 5 rocket 4.1 22:17:46 10° NW 22:18:57 17° NNW 22:18:57 17° NNW
ATLAS CENTAUR R/B 4.1 22:12:34 10° WNW 22:21:33 37° N 22:23:02 33° NNE
USA 215 4.5 22:22:12 14° ENE 22:27:10 37° N 22:33:04 10° WNW
Cosmos 1833 Rocket 3.8 22:22:33 10° NNW 22:26:22 40° N 22:26:22 40° N
H-2A R/B 4.5 22:26:45 10° N 22:28:11 19° N 22:28:11 19° N
Terra 4.0 22:35:13 21° WNW 22:35:13 21° WNW 22:37:38 10° NW
NOSS 3-1 (C) 4.2 22:27:02 10° NW 22:33:58 63° WSW 22:33:58 63° WSW
Cosmos 2082 Rocket 3.8 22:30:51 10° N 22:34:29 26° NNE 22:34:29 26° NNE
ATLAS 2AS CENTAUR R/B 4.4 22:56:59 10° W 23:03:35 32° NNW 23:09:56 10° NNE
USA 229 DEB 4.3 23:10:56 10° NW 23:16:41 59° NW 23:16:41 59° NW
USA 229 4.3 23:11:02 10° NW 23:16:47 59° NW 23:16:47 59° NW
